Vorticity
nan nan nan nan nan nan nan nan nan nan nan nan nan nan nan nan nan nan nan nan nan nan nan nan nan nan nan nan nan nan nan nan nan nan nan nan nan nan nan nan nan nan nan nan
nan 10 11 9 10 12 10 11 8 14 10 10 7 9 10 11 16 9 12 9 5 16 6 13 18 15 13 15 12 10 10 8 9 10 9 9 8 10 8 8 10 9 8 nan
nan 9 9 15 14 8 9 14 13 10 7 9 14 12 13 14 15 11 6 11 11 5 8 7 13 19 16 12 15 15 11 11 10 11 10 9 9 9 9 10 9 10 9 nan
nan 10 13 9 12 11 6 6 14 6 9 13 11 16 16 17 21 15 10 8 8 7 8 10 11 12 20 18 12 13 14 13 11 13 12 13 12 10 8 11 9 9 11 nan
nan 7 2 10 8 9 11 2 3 7 6 6 19 27 7 14 24 16 10 10 11 10 10 9 9 11 11 12 14 12 12 12 13 14 11 11 11 11 10 9 10 11 10 nan
nan 10 10 6 1 12 17 -0 -7 5 7 6 17 21 -0 1 13 13 12 12 12 13 10 8 9 11 10 9 8 6 9 12 14 13 13 13 13 12 11 10 10 11 12 nan
nan 9 5 6 11 24 15 -2 -2 6 8 10 16 4 1 7 10 10 9 12 11 11 10 9 10 10 8 7 7 10 7 6 8 12 16 14 12 12 13 13 12 13 13 nan
nan 11 4 4 18 16 5 3 5 8 12 11 7 2 9 16 10 10 10 8 8 8 8 8 10 11 8 8 8 8 8 9 10 11 13 15 15 14 15 14 12 13 12 nan
nan 3 1 9 9 -2 7 6 9 11 11 12 9 10 8 11 10 12 9 9 10 8 7 8 8 6 7 9 11 11 10 10 10 11 11 13 16 19 17 15 14 12 9 nan
nan 9 4 3 2 7 9 11 8 7 5 4 7 10 12 11 11 7 9 9 9 8 8 7 7 9 8 8 9 9 10 11 13 13 11 12 14 14 16 16 11 12 10 nan
nan -1 7 9 3 4 8 9 9 9 5 7 9 13 15 8 12 11 11 7 9 7 6 7 9 9 10 10 11 11 11 14 12 11 12 10 9 13 20 19 24 20 13 nan
nan 9 10 8 7 9 9 11 11 12 13 13 10 10 10 11 12 17 8 8 8 8 9 10 8 9 11 14 15 14 17 15 11 11 12 11 7 1 11 17 23 20 25 nan
nan 10 11 16 17 13 14 16 17 17 16 12 9 5 9 16 15 12 8 11 7 10 9 11 11 12 13 16 18 20 19 15 13 11 12 12 13 13 2 -2 2 13 16 nan
nan 10 14 20 17 14 17 25 35 28 20 12 6 5 16 19 13 11 10 11 9 6 11 13 11 13 14 18 17 15 11 12 14 12 13 13 12 15 13 11 3 -1 5 nan
nan 9 16 18 10 7 17 30 29 26 19 14 10 8 16 16 10 10 11 8 11 9 10 12 13 13 18 16 12 11 11 13 12 11 11 12 12 14 13 13 12 11 6 nan
nan 13 21 19 10 10 10 14 16 16 16 17 15 13 10 10 8 5 11 16 12 10 12 12 12 11 14 14 11 10 11 11 13 12 11 9 10 9 9 11 9 10 9 nan
nan 12 15 14 14 12 12 11 9 12 12 12 14 16 15 8 12 11 9 10 9 9 12 14 11 13 12 11 12 11 11 10 9 9 11 11 12 7 9 9 10 10 10 nan
nan 16 17 15 8 19 23 19 18 18 16 15 15 14 12 12 10 7 9 9 6 9 10 12 14 15 14 14 14 13 13 12 11 12 10 10 10 10 11 10 10 10 10 nan
nan 20 20 22 22 16 16 19 20 18 20 21 13 12 11 10 11 12 9 10 10 6 10 12 12 11 12 14 16 12 12 12 12 11 13 12 11 12 12 14 11 10 14 nan
nan 19 15 12 15 15 13 11 13 13 12 13 13 10 10 11 10 9 11 11 10 10 10 12 10 9 9 9 11 13 12 11 10 11 12 10 10 11 12 11 9 11 12 nan
nan 14 12 10 13 13 12 13 11 11 13 12 10 11 7 7 9 10 11 9 9 14 9 11 13 13 12 11 8 12 11 10 10 11 11 11 11 11 11 11 11 10 9 nan
nan 15 13 12 10 11 12 11 9 9 10 11 9 8 9 11 10 8 11 8 8 12 14 11 15 17 14 11 12 12 12 12 12 12 12 12 11 12 12 12 12 11 11 nan
nan 13 13 12 11 10 8 6 10 11 9 7 9 8 10 12 12 10 7 11 16 13 14 14 14 12 12 10 12 11 11 11 12 12 11 11 11 11 12 11 11 11 11 nan
nan 11 10 10 9 7 8 8 11 12 12 12 13 13 12 9 10 12 12 10 11 14 13 13 10 8 9 11 10 10 10 10 11 11 11 10 11 12 12 11 11 12 12 nan
nan 10 7 10 9 10 11 11 9 9 11 11 11 12 11 12 14 11 10 11 11 10 11 11 8 8 9 10 10 10 10 11 12 11 11 10 12 14 12 10 11 10 9 nan
nan 9 10 10 10 12 12 11 11 10 10 10 11 11 11 11 10 10 9 10 9 9 8 8 7 7 9 10 10 10 11 12 12 12 10 9 11 11 12 10 9 9 9 nan
nan nan nan nan nan nan nan nan nan nan nan nan nan nan nan nan nan nan nan nan nan nan nan nan nan nan nan nan nan nan nan nan nan nan nan nan nan nan nan nan nan nan nan nan
CAPE
0 0 0 0 0 0 0 0 0 0 0 0 0 0 3 99 105 57 21 11 34 6 435 327 57 273 751 1591 1761 1886 1856 1939 1917 1858 2007 2169 2448 2400 2181 1645 1891 1678 1496 2179
0 0 0 0 0 0 0 0 0 0 0 0 0 0 0 0 126 102 67 102 64 278 410 711 930 132 295 1372 1698 1815 1770 1700 1732 1919 1913 1959 2037 2195 2323 2060 1619 1775 1702 1304
0 0 0 0 0 0 0 0 0 0 0 0 0 0 0 0 61 161 140 58 140 60 107 226 793 1030 342 464 1129 1618 1648 1604 1385 1227 1652 1723 1872 1824 2002 2226 1843 1828 1805 1681
0 0 0 0 0 0 0 0 0 0 0 0 0 0 4 3 0 82 131 24 29 0 0 0 392 735 1098 1299 821 969 1045 1292 917 711 1015 1345 1487 1612 1636 2033 2053 1908 2045 1928
0 0 0 0 0 0 0 0 0 0 0 0 0 7 56 1 11 122 32 0 0 0 21 81 165 389 1356 1505 1979 2079 2366 2534 2822 1487 877 645 776 1235 1581 1617 1890 1933 2008 2201
0 0 0 0 0 0 0 0 0 0 0 0 0 37 51 0 0 0 9 2 5 53 192 211 263 1288 2339 2543 2834 2736 2650 2497 2495 2622 3268 3232 1460 983 1162 1323 1449 1754 1782 2064
0 0 0 0 0 0 0 0 0 0 0 0 0 0 0 0 0 0 73 64 384 390 587 551 299 650 1445 2372 2137 1904 1920 1832 1658 1832 2366 2520 3089 3604 2324 1846 1611 1351 1970 1525
0 0 0 0 0 0 0 0 0 0 0 0 0 0 0 0 0 0 97 307 252 239 365 519 596 574 553 663 1212 1280 1660 1783 1512 1505 2328 2716 2650 2971 3556 3553 2906 2101 1062 0
0 0 0 0 0 0 0 0 0 0 0 0 0 0 0 0 0 0 182 241 320 402 405 591 616 744 777 765 834 1395 1615 1414 1383 1676 1079 49 998 3138 3821 3909 3560 1778 20 0
0 0 0 0 0 0 0 0 0 0 0 0 0 0 0 0 0 0 119 364 751 732 617 448 259 164 204 314 688 892 1038 1134 892 70 0 0 0 0 401 4091 3377 447 0 0
0 0 0 0 0 0 0 0 0 0 0 0 0 0 0 0 0 0 408 973 671 423 227 79 2 0 0 32 99 156 315 749 4 0 0 1 0 0 0 0 304 19 0 0
0 0 0 0 0 0 0 0 0 0 0 0 0 0 0 10 0 206 653 200 57 40 61 16 0 0 0 3 25 151 547 90 0 0 0 1 1 0 0 0 1 1 0 0
0 0 0 0 0 0 0 0 0 0 0 0 0 0 0 6 169 100 4 0 3 32 18 9 0 2 21 98 219 557 112 0 0 0 1 1 0 1 0 0 0 1 0 0
0 0 3 0 2 0 0 0 17 4 6 2 0 0 1 9 118 40 4 0 0 0 1 1 11 2 2 2 1 2 0 1 2 3 3 2 2 1 1 0 0 0 0 0
0 42 82 53 0 0 6 19 2 2 4 5 2 0 16 159 52 3 1 0 0 0 0 0 2 1 3 1 1 1 3 2 2 2 1 2 1 1 0 0 0 0 0 0
2 36 77 2 0 0 2 17 10 11 22 51 32 45 115 39 2 1 1 0 0 1 0 0 0 0 0 2 1 1 1 1 2 2 0 0 1 0 4 0 0 0 0 0
11 18 31 38 31 13 2 2 0 15 61 43 45 125 43 18 1 1 0 0 0 0 0 0 0 0 0 0 0 0 0 0 0 0 1 0 0 0 0 0 0 0 0 0
44 46 62 41 38 80 39 6 49 62 75 34 89 23 10 1 0 2 0 0 0 0 0 0 0 0 0 0 0 0 0 0 0 0 0 0 0 0 0 0 0 0 0 0
23 45 116 87 60 90 68 38 11 31 24 5 12 14 10 3 3 2 0 0 0 0 0 0 0 0 0 0 0 0 0 0 0 0 0 0 0 0 0 0 0 0 0 0
72 24 23 15 12 7 9 8 7 5 3 2 1 1 1 0 0 0 0 0 0 0 0 0 0 0 0 0 0 0 0 0 0 0 0 0 0 0 0 0 0 0 0 0
14 5 4 8 6 5 5 5 3 2 1 0 0 0 1 0 0 0 0 0 0 0 0 0 0 0 0 0 0 0 0 0 0 0 0 0 0 0 0 0 0 0 0 0
7 4 4 5 3 4 2 0 1 1 0 0 0 0 0 0 0 0 0 0 0 0 0 0 0 0 0 0 0 0 0 0 0 0 0 0 0 0 0 0 0 0 0 0
3 2 4 3 3 2 0 0 0 0 0 0 0 0 0 0 0 0 0 0 0 0 0 0 0 0 0 0 0 0 0 0 0 0 0 0 0 0 0 0 0 0 0 0
1 0 0 0 0 0 0 0 0 0 0 0 0 0 0 0 0 0 0 0 0 0 0 0 0 0 0 0 0 0 0 0 0 0 0 0 0 0 0 0 0 1 0 5
0 0 0 0 0 0 0 0 0 0 0 0 0 0 0 0 0 0 0 0 0 0 0 0 0 0 0 0 0 0 0 0 0 0 0 0 0 0 0 0 0 0 0 0
0 0 0 13 21 40 21 0 0 0 0 0 0 0 0 0 0 0 0 0 0 0 0 0 0 0 0 0 0 0 0 0 0 0 0 0 0 0 0 0 0 0 0 0
0 7 13 13 8 17 2 0 1 0 0 0 0 0 0 0 0 0 0 0 0 0 0 0 0 0 0 0 0 0 0 0 0 0 0 0 0 0 0 0 0 0 0 0